Back to catalog

STARLINK-30299

AliveCommunicationsVLEO
NORAD 57650·PAYLOAD·🇺🇸 United States

Launched Aug 17, 2023 from Cape Canaveral Space Force Station

Loading…

Next Passes (next 24 hours)

TLE

FreshSource: CelesTrak SupGP

Epoch: Sep 14, 2026, 13:22 UTC

1 57650C 23122U   26257.55743056  .00013032  00000+0  47249-3 0  2574
2 57650  43.0021 105.8011 0001561 257.5718  68.8219 15.27538248    19

Track STARLINK-30299 in real time with AllMySat

Download on the App Store